BEIDOU-3 G3 (C61)

Last updated on Mon Oct 20 2025 00:03:25 GMT+0000 (Coordinated Universal Time)

1 45807U 20040A 25292.07491635 -.00000355 00000+0 00000+0 0 9997 2 45807 1.8557 65.9990 0004252 304.8013 154.4898 1.00266636 19652
UTC large
Height (km)
Speed (km/s)
/
Latitude / Longitude
Inclination (degrees)
Orbital Period (minutes)
Azimuth
Elevation
Range (km)
Doppler Factor

Next 0 passes for location: London (51.5072 / 0.1276)

Sorry there are no passes over London.